This is the latest recevied weather packets stored in our database for station/object K1AWR. If no packets are shown the sender has not sent any weather packets the latest 10 day(s).
| Time | Temp. | Humidity | Pressure | Rain* | Wind** | Luminosity | Snow |
|---|---|---|---|---|---|---|---|
| 1778233465 | 5.56° C | 71% | 1010.9 hPa | 0 mm | - | 2 W/m² | - |
| 1778233162 | 5.56° C | 72% | 1011.1 hPa | 0 mm | - | 1 W/m² | - |
| 1778232860 | 5.56° C | 73% | 1011 hPa | 0 mm | - | 1 W/m² | - |
| 1778232557 | 5.56° C | 71% | 1010.9 hPa | 0 mm | - | 0 W/m² | - |
| 1778232255 | 5.56° C | 71% | 1011 hPa | 0 mm | - | 0 W/m² | - |
| 1778231953 | 5.56° C | 70% | 1010.9 hPa | 0 mm | - | 0 W/m² | - |
| 1778231649 | 6.11° C | 75% | 1011 hPa | 0 mm | - | 0 W/m² | - |
| 1778231347 | 6.11° C | 74% | 1010.9 hPa | 0 mm | - | 0 W/m² | - |
| 1778231046 | 6.11° C | 71% | 1010.9 hPa | 0 mm | - | 0 W/m² | - |
| 1778230740 | 6.11° C | 70% | 1010.8 hPa | 0 mm | - | 0 W/m² | - |
| 1778230437 | 6.11° C | 70% | 1011 hPa | 0 mm | - | 0 W/m² | - |
| 1778230134 | 6.11° C | 69% | 1011.1 hPa | 0 mm | - | 0 W/m² | - |
| 1778229830 | 6.11° C | 69% | 1011 hPa | 0 mm | - | 0 W/m² | - |
| 1778229529 | 6.11° C | 63% | 1011 hPa | 0 mm | - | 0 W/m² | - |
| 1778229226 | 6.11° C | 68% | 1011 hPa | 0 mm | - | 0 W/m² | - |
| 1778228925 | 6.11° C | 68% | 1010.8 hPa | 0 mm | - | 0 W/m² | - |
| 1778228623 | 6.11° C | 66% | 1010.9 hPa | 0 mm | - | 0 W/m² | - |
| 1778228320 | 6.11° C | 66% | 1010.7 hPa | 0 mm | - | 0 W/m² | - |
| 1778228017 | 6.11° C | 67% | 1010.8 hPa | 0 mm | - | 0 W/m² | - |
| 1778227714 | 6.11° C | 70% | 1010.8 hPa | 0 mm | - | 0 W/m² | - |
| 1778227412 | 6.11° C | 67% | 1010.8 hPa | 0 mm | - | 0 W/m² | - |
| 1778227108 | 6.11° C | 68% | 1010.6 hPa | 0 mm | - | 0 W/m² | - |
| 1778226805 | 6.11° C | 65% | 1010.6 hPa | 0 mm | - | 0 W/m² | - |
| 1778226503 | 6.11° C | 64% | 1010.6 hPa | 0 mm | - | 0 W/m² | - |
| 1778226200 | 6.11° C | 66% | 1010.6 hPa | 0 mm | - | 0 W/m² | - |
* Rain latest hour (hover to see other rain measurements)
** Current wind speed in m/s (hover to see current wind gust speed)